Location: *
(43.4667°N, 11.6833°E)
Time: 03:15:15
(UTC+00:00)

Thor Agena Rocket - Pass Details

Date: 19 July 2019
Orbit: 759 x 808 km, 99.1° (Epoch: 19 August)

Event Time Altitude Azimuth Distance (km) Brightness Sun altitude
Rises 20:56:50 0° 12° (NNE) 3,231 7.4 -17.9°
Reaches altitude 10° 20:59:09 10° 10° (N) 2,300 6.6 -18.1°
Maximum altitude 21:04:11 72° 287° (WNW) 801 3.7 -18.6°
Enters shadow 21:08:17 16° 205° (SSW) 1,933 5.3 -19.0°
